Flag for Germany Weather past 2 weeks in Pinneberg, Schleswig-Holstein, Germany

Now
41 °F

Clear.


Feels Like: 36 °F
Forecast: 32 / 52 °F
Wind: 8 mph from Northwest

Location: Hamburg-Fuhlsbuettel

Current Time: Apr 27, 2015 at 11:20:59 PM

Latest Report: Apr 27, 2015 at 10:50 PM


Visibility: 10 mi

Pressure: 29.80 "Hg

Humidity: 66%

Dew point: 30 °F

Location of PinnebergLocation

Historic Weather in Pinneberg — Graph

°F

Pinneberg temperature yesterday

Maximum temperature yesterday: 57 °F (at 1:50 PM)
Minimum temperature yesterday: 45 °F (at 7:20 PM)
Average temperature yesterday: 51 °F

Past Weeks' High & Low Weather Summary

 TemperatureHumidityPressure
High70 °F (Apr 15, 3:20 PM)100% (Apr 14, 3:50 AM)30.39 "Hg (Apr 14, 3:50 AM)
Low30 °F (Apr 18, 5:50 AM)32% (Apr 20, 3:20 PM)29.68 "Hg (Apr 25, 10:20 AM)
Average49 °F73%30.07 "Hg
* Reported Apr 12 10:20 PM — Apr 27 10:20 PM, Pinneberg, Weather by CustomWeather, © 2015

Note: Actual official high and low records may vary slightly from our data, if they occured in-between our weather recording intervals... More about our weather records

Advertising

Pinneberg weather history for previous 24 hours

 ConditionsComfort  
Time TempWeatherWind HumidityBarometerVisibility
10:20 PM
Mon, Apr 27
43 °FClear.9 mph66%29.80 "Hg10 mi
9:50 PM43 °FClear.8 mph66%29.80 "Hg10 mi
9:20 PM45 °FSunny.12 mph61%29.80 "Hg10 mi
8:50 PM46 °FSunny.13 mph57%29.80 "Hg10 mi
8:20 PM46 °FPartly sunny.10 mph62%29.77 "HgN/A
7:50 PM48 °FPartly sunny.14 mph62%29.77 "HgN/A
7:20 PM50 °FPartly sunny.14 mph58%29.77 "HgN/A
6:50 PM50 °FPartly sunny.15 mph62%29.77 "HgN/A
6:20 PM52 °FPartly sunny.14 mph58%29.77 "HgN/A
5:50 PM52 °FPartly sunny.13 mph47%29.77 "HgN/A
5:20 PM52 °FPartly sunny.14 mph47%29.77 "HgN/A
4:50 PM52 °FPartly sunny.14 mph50%29.77 "HgN/A
4:20 PM54 °FBroken clouds.14 mph51%29.77 "HgN/A
3:50 PM55 °FScattered clouds.9 mph47%29.74 "HgN/A
3:20 PM54 °FScattered clouds.12 mph44%29.74 "HgN/A
2:50 PM52 °FPartly sunny.13 mph47%29.74 "HgN/A
2:20 PM52 °FBroken clouds.13 mph54%29.74 "HgN/A
1:50 PM52 °FBroken clouds.10 mph58%29.74 "HgN/A
1:20 PM50 °FPartly sunny.9 mph62%29.74 "HgN/A
12:50 PM48 °FPartly sunny.10 mph66%29.74 "HgN/A
12:20 PM48 °FPartly sunny.9 mph66%29.74 "HgN/A
11:50 AM48 °FPartly sunny.10 mph66%29.74 "HgN/A
11:20 AM48 °FPartly sunny.8 mph71%29.74 "HgN/A
10:50 AM48 °FPartly sunny.9 mph71%29.71 "HgN/A
10:20 AM46 °FLight rain. Partly sunny.9 mph76%29.71 "HgN/A
9:50 AM46 °FLight rain. Partly sunny.8 mph82%29.71 "HgN/A
9:20 AM45 °FLight rain. Partly sunny.7 mph81%29.71 "HgN/A
8:50 AM45 °FLight rain. Partly sunny.8 mph87%29.71 "HgN/A
8:20 AM43 °FLight rain. Partly sunny.8 mph93%29.68 "HgN/A
7:50 AM43 °FLight rain. Partly sunny.6 mph93%29.71 "HgN/A
7:20 AM43 °FLight rain. Partly sunny.7 mph93%29.68 "HgN/A
6:50 AM43 °FLight rain. Passing clouds.7 mph93%29.68 "HgN/A
6:20 AM43 °FPassing clouds.7 mph93%29.68 "Hg5 mi
5:50 AM43 °FPassing clouds.7 mph100%29.68 "Hg5 mi
5:20 AM43 °FPassing clouds.7 mph93%29.68 "Hg5 mi
4:50 AM43 °FPassing clouds.6 mph93%29.68 "Hg5 mi
4:20 AM43 °FPassing clouds.5 mph93%29.68 "Hg5 mi
3:50 AM43 °FLight rain. Passing clouds.5 mph93%29.68 "HgN/A
3:20 AM43 °FLight rain. Partly cloudy.5 mph93%29.68 "HgN/A
2:50 AM43 °FLight rain. Partly cloudy.6 mph93%29.68 "HgN/A
2:20 AM43 °FLight rain. Partly cloudy.5 mph100%29.71 "HgN/A
1:50 AM45 °FLight rain. Passing clouds.5 mph93%29.71 "HgN/A
1:20 AM45 °FLight rain. Passing clouds.5 mph93%29.71 "HgN/A
12:50 AM45 °FLight rain. Passing clouds.3 mph93%29.71 "HgN/A
12:20 AM45 °FLight rain. Passing clouds.3 mph93%29.71 "HgN/A
11:50 PM
Sun, Apr 26
45 °FLight rain. Passing clouds.2 mph93%29.71 "HgN/A
11:20 PM45 °FPartly cloudy.3 mph93%29.71 "HgN/A
Weather by CustomWeather, © 2015

See weather overviewHow to use our weather pages